Regional Weather Roundup
Issued by NWS

Home | Current Version | Previous Version | Graphics & Text | Print | Product List | Glossary On
Versions: 1 2 3 4 5 6 7 8 9 10 11 12 13 14 15 16 17 18 19 20 21 22 23 24 25 26 27 28 29 30 31 32 33 34 35 36 37 38 39 40 41 42 43 44 45 46 47 48 49 50
000
ASUS44 KMEG 041410
RWRTN
TENNESSEE HOURLY STATE WEATHER ROUNDUP
NATIONAL WEATHER SERVICE MEMPHIS TN
800 AM CST WED MAR 04 2015

TNZ002-004-019-021-049-052-054-088>092-041500-
WEST TENNESSEE

CITY           SKY/WX    TMP DP  RH WIND       PRES   REMARKS
MEMPHIS INTL   FOG       53  51  93 N6        29.90R VSB 1/2
NWS MEMPHIS      N/A     52 N/A N/A MISG        N/A
JACKSON        LGT RAIN  51  50  96 N8        29.91R FOG
DYERSBURG      CLOUDY    45  32  61 N9        29.96R
UNION CITY     CLOUDY    39  39 100 N13       29.95R WCI  32
PARIS          CLOUDY    43  41  93 N13       29.95R
LEXINGTON      CLOUDY    52  50  93 NE7       29.88S
SAVANNAH       CLOUDY    64  64 100 SW14      29.88S
$$

TNZ008-025-027-028-033-062-065-066-041500-
NORTH MIDDLE TENNESSEE

CITY           SKY/WX    TMP DP  RH WIND       PRES   REMARKS
NASHVILLE      LGT RAIN  51  50  96 NE3       29.91S VSB 1
CLARKSVILLE    LGT RAIN  45  43  93 N13       29.95R FOG
SMYRNA         LGT RAIN  52  52 100 N5        29.92S FOG
COOKEVILLE     CLOUDY    57  55  94 NW8       29.89R
CROSSVILLE     CLOUDY    61  58  90 VRB7      29.93R
$$

TNZ061-075-076-078-094-096-097-041500-
SOUTH MIDDLE TENNESSEE

CITY           SKY/WX    TMP DP  RH WIND       PRES   REMARKS
FAYETTEVILLE   CLOUDY    63  61  94 S10         N/A
TULLAHOMA      CLOUDY    63  61  94 S16       29.93R
WINCHESTER     CLOUDY    66  59  77 SW14      29.94S
MCMINNVILLE    CLOUDY    64  64 100 SW12      29.90S
COLUMBIA       CLOUDY   N/A N/A N/A SW16      29.86S
SHELBYVILLE    CLOUDY    64  63  94 S16       29.90S
$$

TNZ017-018-042-046-047-041500-
NORTHEAST TENNESSEE

CITY           SKY/WX    TMP DP  RH WIND       PRES   REMARKS
TRI CITIES     LGT RAIN  48  48 100 CALM      29.95R FOG
ELIZABETHTON   CLOUDY    48  48 100 CALM      29.96R
$$

TNZ012-013-036-069-073-074-041500-
CENTRAL EAST TENNESSEE

CITY           SKY/WX    TMP DP  RH WIND       PRES   REMARKS
KNOXVILLE      PTSUNNY   64  59  83 SW24      29.92F
OAK RIDGE      LGT RAIN  57  56  96 CALM      29.93F FOG
GATLINBURG     MOSUNNY   66  55  68 SW13G24   29.91F
MORRISTOWN     MOSUNNY   63  63 100 SW13      29.92F
$$

TNZ083-085-099-041500-
SOUTHEAST TENNESSEE

CITY           SKY/WX    TMP DP  RH WIND       PRES   REMARKS
CHATTANOOGA    PTSUNNY   62  59  90 S9        29.97S FOG
$$

SKY/WX REPORTED AS FAIR MEANS FEW OR NO CLOUDS BELOW
12 THOUSAND FEET.



USA.gov is the U.S. government's official web portal to all federal, state and local government web resources and services.